{"data":{"norad_id":43931,"epoch":"2026-09-20T02:38:18.951648Z","epoch_age_seconds":49145,"freshness":"FRESH","line1":"1 43931U 19002K   26263.10994157  .00000047  00000+0  97320-5 0  9993","line2":"2 43931  86.3970 313.9364 0002060  89.9366 270.2066 14.34217408402567","mean_motion":14.34217408,"eccentricity":0.000206,"inclination_deg":86.397,"raan_deg":313.9364,"arg_perigee_deg":89.9366,"mean_anomaly_deg":270.2066,"bstar":9.732e-6,"rev_number":40256,"period_min":100.40318796633,"perigee_km":776.19419603376,"apogee_km":779.14238781403,"semimajor_km":7155.8052919239,"source":"CELESTRAK","updated_at":"2026-09-20T09:00:36.356794Z"}}